User: anonymous   Login
Location: Columbia
(38.9520°N, 92.3340°W)
Time: 14:38:50
(UTC-06:00)
Language:

Cosmos 158 Rocket - Orbit

View from above orbital plane
View from above orbital plane
View from above satellite
View from above satellite

Ground track
Ground track

The orbit data is extracted from the following two-line orbital elements,

1  2802U 67045B   17346.93144241 +.00000036 +00000-0 +18547-4 0  9991
2  2802 074.0102 193.9388 0067137 206.2542 153.5207 14.43672332654771
Epoch (UTC): 12 December 2017 22:21:16
Eccentricity: 0.0067137
inclination: 74.0102°
perigee height: 698 km
apogee height: 794 km
right ascension of ascending node: 193.9388°
argument of perigee: 206.2542°
revolutions per day: 14.43672332
mean anomaly at epoch: 153.5207°
orbit number at epoch: 65477

The dashed part of the orbit path shows where the satellite is in the earth's shadow,  

DLR